Location: Shepherdstown, WV
(39.4326°N, 77.8042°W)
Time: 19:12:35
(UTC-04:00)

STARLINK-2743 - Pass Details

Date: 19 June 2021
Orbit: 348 x 351 km, 53.0° (Epoch: 26 July)

Event Time Altitude Azimuth Distance (km) Brightness Sun altitude
Rises 14:17:33 0° 298° (WNW) 2,234 6.8 68.9°
Reaches altitude 10° 14:19:53 10° 282° (WNW) 1,375 6.0 68.6°
Maximum altitude 14:22:19 22° 230° (SW) 883 5.4 68.2°
Drops below altitude 10° 14:24:43 10° 177° (S) 1,356 6.0 67.9°
Enters shadow 14:50:14 -52° 138° (SE) 10,423 9.6 63.9°
Exits shadow 15:26:11 -57° 334° (NNW) 11,142 9.8 57.6°
